[[{"header":{"parameterUnit":"m.s-1","parameterCategory":1,"la1":30.2991,"la2":30.254,"lo1":-89.0895,"lo2":-89.0444,"dy":0.0017,"dx":0.0017,"nx":28,"ny":28,"refTime":"2025-12-28T03:00:00:Z","depth":0,"parameterNumber":2,"parameterNumberName":"U-component_of_WINDS"},"data":[0,0,0,0,0,0,0,0,0,0,0,0,0,0,0,0,0,0,0,0,0,0,0,0,0,0,0,0,0,0,0,0,0,0,0,0,0,0,0,0,0,0,0,0,0,0,0,0,0,0,0,0,0,0,0,0,0,0,0.0496,0.0497,0,0.0583,0.0584,0.0585,0.0629,0.0629,0.0629,0.0629,0.0721,0.0723,0.0725,0,0,0,0,0,0,0,0,0,0,0,0,0,0.0371,0.0373,0.0496,0.0497,0.0498,0.0582,0.0584,0.0585,0.0629,0.0629,0.0629,0.0629,0.072,0.0723,0.0726,0,0,0,0,0,0,0,0,0,0,0,0,0,0.0439,0.0374,0.0496,0.053,0.0534,0.0582,0.0584,0.0585,0.0629,0.0629,0.0629,0.0629,0.0719,0.0723,0.0726,0.0747,0,0,0.0737,0.0739,0,0,0,0,0,0,0,0,0.0435,0.0443,0.0524,0.0528,0.0533,0.0595,0.0573,0.0639,0.0629,0.0593,0.0629,0.0629,0.0679,0.0686,0.0702,0.0751,0.0755,0.0737,0.074,0.0741,0.0742,0,0,0,0,0,0,0,0.043,0.044,0.053,0.0525,0.053,0.0542,0.0552,0.0586,0.0635,0.0596,0.06,0.0609,0.0681,0.0699,0.0705,0.0756,0.0737,0.074,0.0743,0.0744,0.0828,0.0828,0,0,0,0,0,0,0.0419,0.0435,0.0528,0.0533,0.0483,0.0545,0.0555,0.0575,0.0635,0.0644,0.0609,0.0611,0.0692,0.07,0.0708,0.0737,0.0741,0.0744,0.0746,0.0828,0.0828,0.0828,0,0,0,0,0,0,0.0417,0.0427,0.0524,0.0485,0.0498,0.0547,0.0568,0.0577,0.0594,0.0644,0.0653,0.0618,0.0693,0.0703,0.0737,0.0741,0.0746,0.0749,0.0827,0.0828,0.0828,0.0794,0,0,0,0,0,0,0.0413,0.0426,0.0434,0.0485,0.05,0.055,0.0569,0.0578,0.06,0.0603,0.0655,0.0663,0.0694,0.0731,0.074,0.0746,0.0752,0.0827,0.0827,0.0828,0.0795,0.0793,0.0791,0,0,0,0,0,0.0408,0.0421,0.0434,0.0445,0.0511,0.0551,0.0559,0.0593,0.06,0.0608,0.0641,0.0662,0.0738,0.0734,0.0745,0.0751,0.0827,0.0827,0.0828,0.0796,0.0793,0.0791,0,0,0,0,0,0,0.037,0.0429,0.0443,0.0473,0.0506,0.0558,0.057,0.059,0.0623,0.0624,0.0666,0.0677,0.0707,0.0733,0.0727,0.0775,0.0785,0.0787,0.0757,0.0755,0.0753,0.0747,0.0755,0,0,0,0,0,0.0365,0.0391,0.0442,0.0463,0.0479,0.0521,0.054,0.0563,0.06,0.0614,0.0649,0.0685,0.0717,0.0738,0.077,0.0799,0.0811,0.0809,0.0807,0.0805,0.0806,0.0824,0.0824,0.0828,0.0828,0.0828,0,0,0.0355,0.039,0.0405,0.0456,0.0485,0.0512,0.0533,0.0561,0.0582,0.0619,0.0653,0.068,0.0722,0.0754,0.0769,0.0776,0.0808,0.0805,0.0803,0.0806,0.0824,0.0824,0.0824,0.0828,0.0828,0.0828,0,0,0.0351,0.038,0.0401,0.0429,0.0472,0.05,0.0505,0.0554,0.0573,0.0607,0.0636,0.0662,0.0716,0.0745,0.0767,0.0774,0.0795,0.0784,0.0774,0.0791,0.079,0.079,0.0794,0.0794,0.0785,0.0785,0.0785,0,0.0333,0.0375,0.041,0.0436,0.0459,0.0492,0.0515,0.0541,0.0592,0.0607,0.0613,0.0682,0.0713,0.0752,0.0754,0.077,0.0778,0.0778,0.0788,0.0788,0.0788,0.0792,0.0793,0.0783,0.0784,0.0784,0.0784,0,0.0352,0.038,0.0393,0.0441,0.0464,0.0488,0.0528,0.0548,0.0569,0.0596,0.0631,0.067,0.071,0.0721,0.0743,0.0764,0.0766,0.0779,0.0791,0.0786,0.079,0.0791,0.0781,0.0782,0.0782,0.0783,0,0,0.0326,0.0393,0.0397,0.042,0.0469,0.0492,0.0518,0.0558,0.0574,0.0608,0.0632,0.0677,0.069,0.0714,0.0739,0.0754,0.0758,0.0766,0.0767,0.0763,0.0784,0.0774,0.0775,0.0771,0.0772,0.0772,0.0781,0,0.033,0.0378,0.041,0.0445,0.0473,0.0505,0.0528,0.0561,0.0587,0.0615,0.0645,0.0676,0.069,0.0705,0.0721,0.0754,0.0763,0.0753,0.0795,0.0796,0.0784,0.0777,0.0767,0.0774,0.0782,0.0783,0.0783,0,0.0341,0.0373,0.0411,0.0458,0.0471,0.049,0.0529,0.0555,0.0594,0.0612,0.0639,0.0664,0.0694,0.0702,0.0744,0.0737,0.0756,0.0775,0.0776,0.0782,0.0789,0.0784,0.0776,0.0777,0.0786,0.0785,0.0785,0,0.0319,0.0372,0.0402,0.042,0.0476,0.0489,0.0513,0.0551,0.0573,0.0607,0.0622,0.0659,0.0679,0.0708,0.0743,0.0745,0.0782,0.0793,0.0799,0.0798,0.0806,0.0805,0.0802,0.0816,0.0816,0.0816,0.0816,0,0.032,0.0342,0.0393,0.0412,0.0438,0.0475,0.05,0.0526,0.056,0.0585,0.0615,0.0638,0.0682,0.0711,0.0738,0.0769,0.0778,0.0795,0.0802,0.0792,0.079,0.0806,0.0806,0.0817,0.0817,0.0817,0.0817,0,0.0301,0.0336,0.037,0.042,0.0433,0.045,0.0492,0.0512,0.054,0.0571,0.058,0.0624,0.0659,0.0697,0.0744,0.0763,0.0793,0.0803,0.078,0.0784,0.0788,0.0788,0.0796,0.0799,0.081,0.081,0.081,0,0.0299,0.0317,0.0368,0.0386,0.0409,0.0438,0.046,0.0498,0.0519,0.0565,0.0579,0.0616,0.0648,0.0702,0.0739,0.0776,0.0787,0.0788,0.0793,0.0783,0.0788,0.0787,0.0789,0.0786,0.0786,0.0786,0.0785,0,0.0293,0.0309,0.034,0.0376,0.0401,0.0432,0.0464,0.0477,0.0521,0.0544,0.058,0.0604,0.0653,0.069,0.0731,0.0757,0.0779,0.0783,0.0787,0.0778,0.0764,0.0772,0.0776,0.0783,0.0783,0.0783,0.0784,0.0784,0.0283,0.03,0.0339,0.0372,0.04,0.0429,0.045,0.048,0.051,0.0552,0.0572,0.0608,0.0647,0.0705,0.073,0.0759,0.0765,0.077,0.0772,0.0772,0.077,0.0758,0.0766,0.0766,0.0767,0.0767,0.0767,0,0.0279,0.0305,0.0335,0.0379,0.0405,0.0422,0.0458,0.0479,0.051,0.0544,0.0574,0.0616,0.0651,0.0691,0.0729,0.0745,0.0756,0.0754,0.0754,0.0759,0.0762,0.0755,0.0744,0.0744,0.0744,0.0744,0.0744,0.0744,0.028,0.0311,0.0332,0.0376,0.0403,0.0438,0.0457,0.0484,0.0512,0.0556,0.0586,0.0611,0.0648,0.0689,0.0723,0.0733,0.0747,0.0741,0.0755,0.0757,0.0759,0.0761,0.0755,0.0744,0.0744,0.075,0.075,0.075]},{"header":{"parameterUnit":"m.s-1","parameterCategory":1,"la1":30.2991,"la2":30.254,"lo1":-89.0895,"lo2":-89.0444,"dy":0.0017,"dx":0.0017,"nx":28,"ny":28,"refTime":"2025-12-28T03:00:00:Z","depth":0,"parameterNumber":3,"parameterNumberName":"V-component_of_WINDS"},"data":[0,0,0,0,0,0,0,0,0,0,0,0,0,0,0,0,0,0,0,0,0,0,0,0,0,0,0,0,0,0,0,0,0,0,0,0,0,0,0,0,0,0,0,0,0,0,0,0,0,0,0,0,0,0,0,0,0,0,3.0538,3.0538,0,3.0554,3.0554,3.0554,3.0577,3.0578,3.0578,3.0578,3.059,3.059,3.059,0,0,0,0,0,0,0,0,0,0,0,0,0,3.0524,3.0525,3.0538,3.0538,3.0538,3.0554,3.0554,3.0554,3.0577,3.0578,3.0578,3.0578,3.059,3.059,3.059,0,0,0,0,0,0,0,0,0,0,0,0,0,3.0534,3.0525,3.0538,3.0552,3.0553,3.0554,3.0554,3.0554,3.0577,3.0578,3.0578,3.0579,3.059,3.059,3.059,3.0577,0,0,3.0589,3.0589,0,0,0,0,0,0,0,0,3.0534,3.0535,3.055,3.0551,3.0552,3.0564,3.0554,3.0562,3.0577,3.0568,3.0578,3.0579,3.0581,3.0581,3.0583,3.0577,3.0578,3.0589,3.0589,3.0589,3.0589,0,0,0,0,0,0,0,3.0533,3.0534,3.0544,3.055,3.0551,3.0556,3.0558,3.0555,3.057,3.0569,3.057,3.0572,3.0581,3.0583,3.0583,3.0578,3.0589,3.0589,3.0589,3.0589,3.0564,3.0564,0,0,0,0,0,0,3.0531,3.0533,3.0544,3.0545,3.0544,3.0556,3.0558,3.056,3.057,3.0573,3.0572,3.0573,3.0583,3.0583,3.0584,3.0571,3.0589,3.0589,3.0589,3.0565,3.0564,3.0563,0,0,0,0,0,0,3.053,3.0531,3.0543,3.054,3.0541,3.0556,3.0557,3.056,3.0561,3.0573,3.0575,3.057,3.0583,3.0584,3.0579,3.0571,3.0589,3.0589,3.0565,3.0565,3.0564,3.0543,0,0,0,0,0,0,3.053,3.0531,3.0527,3.0539,3.0542,3.0539,3.0557,3.056,3.0561,3.0564,3.0572,3.0574,3.0584,3.0579,3.0579,3.0571,3.0589,3.0566,3.0565,3.0564,3.0545,3.0542,3.0539,0,0,0,0,0,3.0529,3.0519,3.0527,3.0528,3.0537,3.0538,3.054,3.0552,3.0561,3.0556,3.0564,3.0574,3.0572,3.0578,3.0578,3.0571,3.0567,3.0565,3.0564,3.0546,3.0542,3.0539,0,0,0,0,0,0,3.0503,3.0521,3.0529,3.0523,3.053,3.0542,3.0537,3.0547,3.055,3.0552,3.0565,3.0567,3.0561,3.0565,3.0572,3.0559,3.0571,3.057,3.0557,3.0554,3.0551,3.0551,3.0589,0,0,0,0,0,3.0497,3.0499,3.0513,3.0506,3.0509,3.0523,3.0524,3.0533,3.0539,3.0542,3.0549,3.0553,3.0554,3.0554,3.0555,3.0545,3.0548,3.054,3.0537,3.0535,3.0534,3.053,3.0527,3.0559,3.0559,3.0559,0,0,3.0484,3.0494,3.0493,3.0501,3.0507,3.0508,3.0525,3.0524,3.0524,3.0541,3.0538,3.0543,3.0549,3.0542,3.054,3.0546,3.0526,3.0533,3.0531,3.0531,3.0529,3.0526,3.0523,3.0558,3.0558,3.0558,0,0,3.0461,3.0468,3.0464,3.047,3.048,3.0489,3.0488,3.05,3.0505,3.0502,3.0516,3.0515,3.0515,3.052,3.0522,3.0502,3.0512,3.0502,3.0488,3.0484,3.0482,3.048,3.0474,3.0471,3.05,3.05,3.05,0,3.0442,3.0445,3.046,3.0459,3.0463,3.048,3.0476,3.0481,3.0489,3.0491,3.0498,3.05,3.0505,3.05,3.0496,3.0497,3.0496,3.0501,3.0481,3.0479,3.0477,3.0472,3.0469,3.0499,3.0499,3.0499,3.05,0,3.0423,3.0424,3.042,3.043,3.0433,3.043,3.0444,3.0445,3.0454,3.0463,3.046,3.0467,3.0471,3.047,3.0478,3.0467,3.047,3.0479,3.0491,3.0473,3.0468,3.0466,3.0498,3.0498,3.0498,3.0499,0,0,3.0383,3.0404,3.0402,3.0407,3.042,3.0421,3.0419,3.0424,3.0425,3.043,3.0429,3.043,3.0439,3.0442,3.045,3.0447,3.0432,3.0456,3.0457,3.0453,3.0422,3.0416,3.0413,3.0439,3.0438,3.0438,3.0422,0,3.0363,3.0363,3.0377,3.0372,3.0374,3.0392,3.039,3.0397,3.0405,3.0407,3.0415,3.0416,3.0427,3.0429,3.0427,3.0435,3.0427,3.0436,3.0438,3.0438,3.0437,3.041,3.0404,3.0388,3.042,3.0419,3.0419,0,3.0339,3.0346,3.0342,3.0357,3.0358,3.0357,3.0364,3.0365,3.0374,3.038,3.0384,3.0394,3.0393,3.0404,3.0403,3.0409,3.041,3.0415,3.0414,3.0415,3.0428,3.0412,3.0383,3.0381,3.0416,3.0416,3.0416,0,3.0312,3.032,3.0319,3.0323,3.034,3.0339,3.0345,3.0354,3.0357,3.0363,3.0365,3.0369,3.0372,3.0375,3.0386,3.0393,3.0384,3.0395,3.0389,3.0388,3.0386,3.0386,3.0359,3.0386,3.0386,3.0386,3.0386,0,3.0288,3.0285,3.0308,3.0307,3.0305,3.0321,3.0318,3.0326,3.0334,3.0335,3.0349,3.035,3.0365,3.0367,3.0375,3.0373,3.0374,3.0379,3.0381,3.0378,3.0377,3.0379,3.0381,3.0385,3.0385,3.0385,3.0385,0,3.0257,3.0272,3.0273,3.029,3.0294,3.0291,3.0305,3.0305,3.0314,3.0316,3.0317,3.0331,3.0334,3.0346,3.0351,3.0357,3.0353,3.0357,3.035,3.0352,3.0345,3.0346,3.0318,3.0316,3.0343,3.0343,3.0343,0,3.0242,3.0241,3.0258,3.0261,3.0267,3.0271,3.0275,3.0291,3.0294,3.0305,3.0303,3.0308,3.0313,3.0317,3.0327,3.0331,3.0336,3.0326,3.0337,3.0334,3.0337,3.0338,3.0338,3.0324,3.0324,3.0323,3.0323,0,3.0213,3.0221,3.0227,3.0236,3.0241,3.0248,3.0255,3.0256,3.0274,3.0277,3.0281,3.0285,3.0292,3.0297,3.0303,3.0308,3.0319,3.032,3.0319,3.0316,3.0313,3.0316,3.0345,3.032,3.0321,3.0321,3.0321,3.0321,3.019,3.0191,3.0204,3.021,3.0218,3.0226,3.0227,3.0238,3.0243,3.0251,3.0259,3.0263,3.0272,3.0283,3.0288,3.029,3.0296,3.0294,3.0293,3.0293,3.0292,3.0312,3.0291,3.0291,3.0291,3.0291,3.0291,0,3.0163,3.0173,3.0179,3.0191,3.0196,3.0207,3.0217,3.022,3.0224,3.0232,3.0238,3.0243,3.0248,3.0259,3.0265,3.0265,3.027,3.0266,3.0267,3.0268,3.0286,3.0287,3.0262,3.0262,3.0262,3.0262,3.0262,3.0262,3.015,3.0152,3.0162,3.0168,3.0177,3.0183,3.0188,3.0195,3.0202,3.0208,3.0214,3.0221,3.0231,3.0238,3.0243,3.0246,3.0248,3.0243,3.0247,3.0264,3.0267,3.0269,3.0271,3.0243,3.0243,3.023,3.023,3.023]}]]